Flag for U.S.A. Weather past 2 weeks in Kalamazoo, Michigan, U.S.A.

Now
29 °F

Overcast.


Feels Like: 20 °F
Forecast: 23 / 32 °F
Wind: 9 mph from North

Location: Kalamazoo / Battle Creek International Airport

Current Time: Dec 29, 2014 at 8:13:33 AM

Latest Report: Dec 29, 2014 at 6:53 AM


Visibility: 10 mi

Pressure: 30.30 "Hg

Humidity: 72%

Dew point: 21 °F

Location of KalamazooLocation

Historic Weather in Kalamazoo — Graph

°F

Kalamazoo temperature yesterday

Maximum temperature yesterday: 36 °F (at 12:53 AM)
Minimum temperature yesterday: 27 °F (at 7:53 PM)
Average temperature yesterday: 32 °F

Past Weeks' High & Low Weather Summary

 TemperatureHumidityPressure
High53 °F (Dec 14, 12:57 PM)96% (Dec 16, 7:53 AM)30.34 "Hg (Dec 16, 7:53 AM)
Low18 °F (Dec 20, 6:53 AM)56% (Dec 28, 2:53 PM)29.39 "Hg (Dec 24, 4:53 PM)
Average36 °F81%30.03 "Hg
* Reported Dec 14 6:53 AM — Dec 29 6:53 AM, Kalamazoo, Weather by CustomWeather, © 2014

Note: Actual official high and low records may vary slightly from our data, if they occured in-between our weather recording intervals... More about our weather records

Advertising

Kalamazoo weather history for previous 24 hours

 ConditionsComfort  
Time TempWeatherWind HumidityBarometerVisibility
6:53 AM
Dec 29
29 °FOvercast.9 mph72%30.30 "Hg10 mi
5:53 AM28 °FMostly cloudy.5 mph75%30.28 "Hg10 mi
4:53 AM27 °FPassing clouds.No wind81%30.26 "Hg10 mi
3:53 AM26 °FClear.No wind81%30.27 "Hg10 mi
2:53 AM27 °FOvercast.6 mph78%30.27 "Hg10 mi
1:53 AM29 °FOvercast.5 mph75%30.25 "Hg10 mi
12:53 AM29 °FOvercast.3 mph75%30.26 "Hg10 mi
11:53 PM
Dec 28
29 °FOvercast.3 mph72%30.24 "Hg10 mi
10:53 PM30 °FOvercast.3 mph69%30.24 "Hg10 mi
9:53 PM30 °FOvercast.6 mph69%30.24 "Hg10 mi
8:53 PM28 °FPassing clouds.5 mph69%30.23 "Hg10 mi
7:53 PM27 °FClear.6 mph72%30.22 "Hg10 mi
6:53 PM28 °FClear.5 mph72%30.20 "Hg10 mi
5:53 PM30 °FPassing clouds.8 mph66%30.19 "Hg10 mi
4:53 PM32 °FSunny.10 mph61%30.18 "Hg10 mi
3:53 PM34 °FScattered clouds.10 mph59%30.16 "Hg10 mi
2:53 PM35 °FScattered clouds.12 mph56%30.14 "Hg10 mi
1:53 PM35 °FScattered clouds.9 mph59%30.13 "Hg10 mi
12:53 PM36 °FScattered clouds.13 mph59%30.14 "Hg10 mi
11:53 AM34 °FPartly sunny.10 mph67%30.16 "Hg10 mi
10:53 AM33 °FOvercast.8 mph66%30.18 "Hg10 mi
9:53 AM32 °FOvercast.8 mph69%30.16 "Hg10 mi
8:53 AM32 °FMore clouds than sun.8 mph73%30.14 "Hg10 mi
Weather by CustomWeather, © 2014

See weather overviewHow to use our weather pages